Temperature
10 9 9 8 7 6 5 5 4 4 4 4 4 4 4 3 3 3 3 3 3 3 2 2 1 1 0 0 0 0 0 0 0 0 1 1 2 2 2 2 2 3 3
9 8 7 7 6 5 5 4 4 4 4 4 4 4 4 4 3 3 3 3 3 2 2 1 1 0 -0 -1 -1 -0 -0 -1 -1 -0 0 1 1 2 2 2 2 3 3
8 7 6 6 5 4 4 4 4 4 4 4 4 4 4 4 3 3 3 3 2 2 1 1 0 -1 -1 -1 -1 -1 -1 -1 -1 -0 0 1 1 2 2 2 2 2 2
7 6 5 5 4 4 4 4 4 4 4 4 4 4 4 3 3 3 2 2 1 1 0 -0 -1 -1 -1 -1 -1 -1 -1 -1 -1 -0 -0 0 1 1 2 2 2 2 2
6 5 5 4 4 4 4 4 4 4 4 4 4 3 3 3 2 2 1 1 0 -0 -0 -1 -1 -1 -1 -1 -1 -1 -1 -1 -1 -0 -0 0 1 1 2 1 1 2 2
5 5 5 4 4 4 4 4 4 4 4 3 3 3 2 2 1 1 0 -1 -1 -1 -1 -1 -1 -1 -1 -1 -1 -1 -1 -1 -0 -0 -0 0 1 1 1 1 1 1 2
5 5 5 4 4 4 4 4 4 3 3 2 2 1 1 0 -0 -1 -1 -1 -1 -1 -1 -1 -1 -1 -1 -1 -1 -1 -0 -0 -0 -0 -0 0 0 1 1 1 1 1 2
4 4 4 4 4 4 4 3 3 2 2 1 1 -0 -1 -1 -1 -2 -2 -2 -2 -1 -1 -1 -1 -1 -1 -1 -1 -1 -0 -0 0 0 0 0 1 1 1 1 1 2 2
4 4 4 4 4 3 3 2 2 1 1 0 -0 -1 -1 -1 -2 -2 -2 -2 -2 -1 -1 -1 -1 -1 -0 -0 -0 -0 -0 0 0 0 0 0 1 1 2 2 2 2 2
4 4 4 4 3 2 2 1 1 0 -0 -0 -1 -1 -2 -2 -2 -2 -2 -2 -1 -1 -1 -1 -0 -0 -0 -0 0 0 0 0 0 0 0 1 1 1 1 2 1 1 1
3 3 3 3 2 1 0 -0 -0 -0 -1 -1 -1 -1 -1 -1 -1 -1 -1 -1 -1 -1 -1 -0 -0 -0 0 0 0 1 1 1 0 0 0 0 1 1 1 1 1 1 1
3 3 2 1 1 0 -0 -0 -1 -1 -1 -1 -1 -1 -1 -1 -1 -1 -1 -1 -1 -1 -0 -0 0 0 0 0 1 1 1 0 0 0 0 0 0 0 0 0 0 0 0
2 2 1 0 -0 -0 -0 -0 -1 -1 -1 -1 -2 -2 -1 -1 -1 -1 -1 -0 -1 -0 -0 -0 0 0 0 0 0 0 0 0 0 0 -0 -0 -0 -0 -0 -0 -0 -0 -0
1 1 1 0 0 -0 -1 -1 -1 -1 -2 -2 -2 -2 -2 -1 -1 -1 -1 -1 -0 -0 0 -0 -0 -0 0 0 0 0 -0 -0 -0 -0 -0 -0 -0 -1 -1 -1 -1 -1 -1
1 1 1 1 0 -0 -1 -1 -1 -2 -2 -2 -2 -2 -2 -1 -1 -1 -1 -1 -1 -0 -0 0 0 0 0 0 -0 -0 -0 -0 -0 -1 -1 -1 -1 -1 -1 -1 -1 -1 -1
1 1 1 1 0 0 -0 -1 -1 -2 -2 -2 -2 -2 -2 -1 -1 -1 -1 -1 -0 -0 -0 -0 0 0 0 -0 -0 -0 -1 -1 -1 -1 -1 -1 -1 -1 -1 -1 -1 -1 -1
1 1 1 1 1 0 -0 -1 -1 -1 -2 -2 -2 -2 -1 -1 -1 -1 -1 -1 -1 -0 -0 -0 -0 -0 -0 -0 -0 -1 -1 -1 -1 -1 -1 -1 -1 -1 -0 -1 -1 -1 -1
1 1 1 1 0 -0 -1 -1 -1 -2 -2 -2 -2 -2 -1 -1 -1 -1 -1 -1 -1 -1 -0 -0 -0 -0 -0 -0 -0 -1 -1 -1 -1 -1 -0 -0 -0 -0 -0 -0 -1 -1 -1
1 1 1 1 0 0 -0 -1 -1 -2 -2 -2 -2 -2 -1 -1 -1 -1 -1 -1 -1 -1 -1 -1 -0 -0 -0 -0 -0 -1 -1 -1 -1 -0 -0 -0 -0 -0 -0 -0 -1 -1 -1
1 1 0 1 1 0 -0 -1 -1 -2 -2 -2 -2 -2 -2 -2 -1 -1 -1 -1 -1 -1 -1 -1 -1 -0 -0 -0 -0 -1 -1 -1 -0 -0 -0 -0 0 0 0 0 0 -0 -0
2 1 1 1 1 0 -0 -1 -1 -2 -2 -2 -2 -2 -2 -2 -2 -2 -2 -2 -1 -1 -1 -1 -1 -1 -0 -1 -1 -1 -1 -0 -0 -0 -0 0 0 0 1 1 1 1 0
2 2 1 1 1 -0 -0 -1 -1 -2 -2 -2 -2 -2 -2 -2 -2 -2 -2 -1 -1 -1 -1 -1 -1 -1 -1 -1 -1 -1 -1 -0 -0 -0 0 0 1 1 1 1 1 1 1
2 2 2 1 1 -0 -0 -1 -1 -2 -2 -2 -2 -2 -2 -2 -2 -2 -2 -1 -1 -1 -1 -1 -1 -1 -1 -1 -1 -1 -0 -0 -0 0 0 1 1 1 1 1 1 1 1
2 2 2 1 1 0 -0 -1 -1 -2 -2 -2 -2 -2 -2 -2 -2 -2 -1 -1 -1 -1 -1 -1 -1 -1 -1 -1 -1 -0 -0 -0 0 0 1 1 1 1 1 1 1 1 1
2 2 1 1 0 0 -0 -1 -1 -2 -2 -2 -2 -2 -2 -2 -2 -2 -1 -1 -1 -1 -1 -1 -1 -1 -1 -0 -0 -0 -0 -0 0 0 1 1 1 1 1 1 1 2 2
2 2 1 1 -0 -0 -1 -1 -1 -2 -2 -2 -2 -2 -2 -2 -2 -2 -1 -1 -1 -1 -1 -1 -1 -1 -0 -0 -0 -0 -0 0 0 0 1 1 1 1 1 1 1 2 2
Wind_Speed
9 8 7 5 3 1 0 1 3 4 5 7 7 8 9 10 10 10 12 13 14 14 14 15 16 16 14 14 14 14 14 14 16 16 16 17 19 18 16 18 19 19 17
8 7 6 4 2 1 2 3 4 6 7 8 9 10 11 11 12 13 14 14 15 16 16 17 17 15 17 16 14 15 14 14 15 18 16 16 18 17 18 17 16 16 16
7 6 4 2 1 2 3 5 6 7 8 10 10 11 12 13 13 14 14 15 15 16 16 17 18 18 18 15 15 14 13 13 14 15 16 15 15 15 16 16 17 14 14
5 4 2 0 2 3 5 6 8 9 10 11 12 13 13 14 14 13 14 15 16 16 16 17 17 17 17 16 14 15 14 14 14 14 15 15 15 16 14 13 13 11 11
4 2 0 2 3 4 6 8 9 10 11 11 12 12 12 12 9 11 14 16 17 17 17 17 17 18 19 17 14 14 14 13 13 13 14 15 15 14 13 10 10 10 10
2 1 2 3 5 6 7 8 9 9 9 9 9 10 11 8 8 10 13 16 17 17 17 16 16 17 17 18 20 21 19 17 16 15 15 16 18 16 13 10 9 10 7
1 2 3 5 6 7 7 7 7 7 7 8 8 9 11 7 5 9 13 16 17 15 15 15 14 15 18 17 17 19 20 22 22 18 17 17 17 15 13 12 10 9 6
1 3 4 5 6 5 5 6 6 6 7 7 8 10 11 8 3 9 16 16 15 15 15 16 17 17 16 16 17 17 17 17 16 12 12 13 13 12 10 9 7 4 1
2 3 5 5 5 5 6 6 6 6 7 8 8 10 11 10 6 10 15 14 13 16 16 17 18 18 17 16 17 16 16 14 10 9 9 10 10 9 6 3 2 2 2
3 4 5 6 6 6 5 6 6 6 8 9 9 10 10 11 9 11 14 12 13 14 15 16 17 17 18 18 15 13 13 10 7 5 4 6 6 6 6 3 2 1 1
5 6 7 7 6 5 5 5 7 7 8 9 10 10 9 10 11 9 13 12 12 13 13 13 12 16 17 15 11 7 7 6 4 3 3 4 5 6 7 6 5 4 3
6 7 6 5 5 5 5 6 7 8 8 9 10 10 9 9 10 12 16 17 17 14 12 11 12 15 12 10 6 5 4 2 2 3 4 5 6 6 7 8 9 9 8
6 6 5 5 5 5 5 6 6 7 8 9 9 10 10 11 11 13 16 18 19 14 11 16 15 12 9 7 10 9 6 5 4 5 6 7 7 7 6 6 7 9 11
6 5 4 4 5 5 6 7 7 7 8 9 9 10 11 11 11 13 12 12 14 12 11 12 11 8 7 7 7 8 7 7 6 7 7 7 6 6 7 6 6 6 9
6 5 5 5 6 5 5 5 7 7 8 8 8 9 10 10 14 18 13 11 12 12 11 7 7 7 7 7 8 8 7 7 8 8 7 7 7 7 8 7 8 8 9
5 5 5 6 6 6 6 4 2 3 4 6 8 9 10 12 16 18 18 18 17 17 10 8 8 8 8 7 7 8 8 8 8 8 8 8 8 7 8 8 8 9 10
7 7 6 7 7 7 7 7 6 3 2 4 8 13 14 16 16 18 18 17 15 15 9 9 9 8 7 7 7 7 8 9 8 8 8 8 8 8 8 9 9 10 11
8 7 7 7 7 8 8 7 7 8 9 9 9 13 16 16 15 16 17 13 12 11 10 10 9 8 7 7 7 7 7 8 8 8 8 8 8 8 9 10 10 12 12
8 7 7 7 8 8 8 8 7 8 8 9 10 12 14 14 12 15 14 11 10 10 10 10 9 8 7 7 6 7 7 8 8 8 8 8 8 8 9 10 12 14 14
8 7 8 7 8 8 8 8 8 8 8 8 9 11 12 11 10 12 11 11 10 10 10 10 9 9 8 7 6 6 7 7 7 7 8 7 7 8 9 11 11 12 12
6 6 2 8 9 9 9 9 8 8 8 8 8 11 14 10 10 11 11 11 10 10 10 9 9 9 8 7 6 7 7 7 7 7 7 7 7 8 9 10 11 12 12
7 8 8 9 9 9 9 9 9 9 9 9 9 10 14 10 10 10 10 10 10 9 9 8 8 8 8 7 6 6 6 6 6 6 7 7 7 8 9 10 11 11 12
7 8 8 8 8 8 8 9 9 9 9 9 9 9 10 10 10 10 10 10 10 9 10 9 9 9 9 9 8 6 6 6 5 5 6 7 7 8 9 10 12 12 12
8 8 9 8 8 9 9 9 9 10 10 9 9 9 9 9 9 10 11 10 9 10 12 11 10 12 14 11 10 9 9 9 7 6 6 7 8 8 9 10 12 13 13
8 8 9 9 9 9 9 9 10 10 10 10 10 10 11 11 11 10 10 9 10 10 13 13 13 13 14 14 13 11 12 12 11 9 5 6 9 9 10 11 11 11 11
9 9 9 8 9 9 9 9 9 10 10 10 10 11 11 11 11 11 11 11 10 10 12 13 15 15 16 14 14 14 13 13 13 13 6 7 8 9 9 10 11 10 11
Wind_Direction
129 122 118 113 106 104 313 294 296 297 297 292 296 296 293 291 289 287 288 292 290 292 293 294 296 297 295 295 293 288 284 280 279 282 281 282 281 280 280 279 279 277 273
129 124 118 115 121 247 270 283 285 285 289 293 294 292 291 290 290 290 291 294 294 296 298 300 299 300 296 294 290 288 286 283 280 282 281 281 280 280 277 277 277 276 276
125 122 119 128 227 275 285 288 288 287 288 291 292 292 294 294 293 293 295 297 298 299 301 300 299 298 295 292 291 289 286 282 278 279 282 284 284 281 281 278 278 279 279
115 113 114 239 285 291 294 292 289 289 291 292 294 296 298 299 299 303 306 305 303 302 300 298 296 294 293 293 291 286 282 281 280 280 283 284 283 282 278 279 281 283 284
105 96 3 290 291 292 293 292 292 293 294 298 300 302 305 305 325 333 318 309 307 304 301 299 297 296 291 286 283 283 283 282 283 282 284 285 284 284 282 282 282 285 283
81 11 327 312 303 298 297 298 300 304 310 316 317 317 316 326 29 350 320 311 307 304 303 302 300 294 291 289 281 280 281 283 285 284 284 283 284 285 286 282 277 275 271
44 339 325 313 307 308 312 319 327 334 337 333 331 328 325 341 34 332 321 312 305 304 303 300 298 296 294 290 290 288 284 279 277 278 280 281 283 282 280 276 266 263 259
345 330 318 316 322 336 352 7 4 354 348 342 337 335 328 335 10 324 323 309 307 305 303 299 296 296 295 295 297 292 288 284 280 280 282 285 287 286 277 268 267 254 222
350 344 350 354 6 28 36 25 10 356 350 340 345 339 332 332 355 326 318 317 311 310 308 305 303 301 299 294 293 290 289 288 284 277 284 297 305 312 307 271 230 219 230
19 30 42 51 58 55 39 17 6 353 351 346 350 341 335 333 335 311 310 318 312 311 308 305 301 299 299 297 293 288 286 292 307 314 322 333 346 7 16 21 2 300 277
63 75 76 73 66 49 29 14 3 358 358 352 348 342 337 334 327 324 320 324 319 312 308 308 307 307 306 306 301 290 286 295 322 2 12 11 18 30 36 37 30 19 17
87 86 79 62 41 33 21 15 11 360 358 357 350 344 342 339 337 342 327 321 320 316 313 315 320 325 334 348 357 10 5 9 53 46 39 34 35 41 44 47 49 51 49
93 86 74 57 39 24 15 16 12 9 1 356 351 346 345 344 345 345 331 323 320 323 323 328 336 348 2 25 36 37 43 52 51 50 46 40 36 42 49 53 57 62 58
89 80 65 46 39 36 16 19 16 10 3 357 353 347 343 342 347 346 337 333 333 337 336 337 346 12 35 35 36 45 48 45 42 49 48 46 46 50 50 47 52 58 63
82 70 55 45 35 24 33 31 20 32 15 356 354 344 341 344 341 333 336 344 347 344 338 354 14 23 34 38 41 46 47 46 48 49 51 52 52 51 51 52 61 66 66
78 62 48 40 32 20 22 51 115 32 10 350 355 352 350 346 336 340 345 344 346 347 358 15 20 23 29 34 39 44 45 46 49 51 51 52 52 52 57 59 63 67 67
65 50 44 36 31 26 21 15 16 23 17 15 8 360 354 347 347 350 349 346 357 0 14 18 19 21 25 33 41 47 48 50 51 54 57 54 52 55 60 63 65 67 66
69 56 38 40 30 27 23 21 18 13 9 8 12 8 354 348 352 357 353 359 11 13 13 14 15 17 24 32 42 48 51 52 51 51 53 56 56 57 61 65 67 73 73
50 43 36 33 30 30 27 28 26 23 18 8 6 5 355 352 360 8 6 15 11 8 7 8 11 15 22 31 42 53 56 54 52 50 51 54 58 65 71 75 76 74 76
73 36 6 26 31 31 31 31 31 26 20 13 11 8 358 2 10 9 10 10 9 6 3 4 8 14 20 27 38 53 60 58 53 50 49 55 60 66 71 75 79 79 80
61 63 27 31 35 29 31 32 35 30 21 16 14 14 3 7 9 7 7 6 6 3 359 360 5 11 18 25 36 52 58 57 53 49 49 57 63 67 69 74 79 83 88
44 40 39 38 39 32 27 35 37 35 26 20 11 12 8 12 10 7 4 2 1 1 360 360 5 9 14 25 33 47 55 54 49 45 48 57 64 67 69 72 78 86 92
39 38 41 39 40 43 38 41 39 37 34 28 18 14 12 10 7 6 4 1 1 3 4 6 9 12 15 23 32 37 43 38 34 35 47 60 68 69 71 73 79 88 90
40 38 40 41 40 40 39 40 41 39 37 32 27 21 18 14 12 10 8 4 4 6 8 9 11 13 19 24 29 35 30 18 16 25 48 69 74 75 78 80 83 89 89
43 41 43 43 40 40 41 40 38 37 36 32 28 25 23 22 19 17 12 9 9 12 13 14 13 13 17 25 28 27 22 18 13 3 54 80 84 83 86 88 90 95 98
47 44 45 46 45 41 41 41 40 36 35 32 30 28 25 24 22 20 17 15 15 15 16 15 15 20 21 23 22 23 23 18 10 358 24 85 86 86 90 91 94 92 93
Height
1512 1513 1514 1516 1517 1518 1519 1519 1519 1519 1519 1518 1518 1516 1514 1512 1510 1507 1505 1502 1499 1496 1492 1489 1485 1481 1476 1472 1469 1465 1461 1457 1450 1445 1444 1441 1438 1435 1432 1431 1428 1426 1424
1510 1511 1512 1514 1515 1516 1518 1518 1518 1517 1517 1516 1515 1513 1511 1509 1506 1503 1500 1497 1493 1490 1486 1482 1477 1473 1469 1465 1461 1457 1453 1450 1445 1439 1437 1434 1431 1428 1425 1423 1421 1419 1416
1508 1510 1511 1513 1514 1515 1516 1516 1516 1515 1514 1513 1512 1509 1507 1504 1501 1498 1495 1491 1487 1483 1479 1474 1469 1465 1460 1457 1453 1450 1446 1443 1439 1434 1430 1427 1424 1422 1419 1416 1413 1410 1408
1507 1509 1511 1512 1514 1514 1514 1514 1514 1513 1511 1510 1508 1505 1502 1499 1496 1492 1489 1485 1480 1476 1471 1466 1462 1458 1454 1450 1446 1443 1439 1436 1432 1428 1424 1420 1417 1414 1412 1408 1405 1403 1401
1506 1509 1511 1512 1512 1512 1512 1512 1511 1510 1508 1506 1503 1500 1497 1494 1489 1485 1481 1477 1473 1468 1464 1460 1455 1451 1447 1443 1440 1437 1433 1430 1426 1422 1418 1414 1410 1407 1404 1402 1399 1396 1394
1506 1509 1511 1512 1511 1511 1510 1509 1508 1506 1503 1501 1498 1495 1491 1488 1482 1478 1474 1469 1466 1462 1457 1453 1448 1445 1441 1437 1434 1431 1428 1424 1420 1416 1411 1407 1402 1400 1397 1394 1392 1390 1388
1507 1509 1510 1510 1510 1509 1508 1506 1504 1502 1499 1496 1493 1490 1487 1483 1477 1472 1467 1463 1460 1456 1452 1447 1443 1439 1435 1431 1428 1424 1420 1417 1413 1410 1404 1399 1395 1391 1389 1387 1386 1385 1384
1507 1508 1508 1509 1508 1507 1505 1503 1501 1498 1496 1493 1489 1486 1482 1479 1473 1468 1463 1459 1456 1452 1448 1443 1438 1433 1429 1425 1421 1416 1412 1409 1406 1402 1398 1393 1389 1385 1383 1382 1381 1381 1381
1507 1507 1507 1507 1506 1504 1502 1500 1498 1496 1493 1490 1487 1483 1479 1475 1471 1466 1461 1457 1453 1448 1444 1438 1433 1428 1423 1419 1414 1409 1405 1402 1400 1396 1393 1389 1385 1382 1381 1380 1380 1379 1379
1507 1506 1505 1505 1504 1502 1500 1499 1497 1494 1492 1489 1485 1481 1477 1473 1469 1464 1460 1455 1450 1444 1439 1433 1428 1422 1417 1412 1408 1404 1400 1398 1396 1393 1391 1387 1384 1382 1380 1379 1379 1378 1378
1506 1505 1504 1503 1502 1501 1500 1497 1495 1493 1490 1487 1484 1480 1476 1472 1468 1464 1459 1453 1447 1441 1434 1428 1423 1418 1412 1407 1403 1400 1398 1396 1395 1393 1391 1388 1386 1384 1382 1380 1379 1378 1377
1505 1505 1504 1503 1503 1501 1499 1497 1495 1492 1490 1487 1483 1479 1476 1472 1468 1463 1458 1452 1446 1439 1432 1426 1421 1415 1410 1406 1402 1400 1398 1397 1396 1394 1392 1390 1388 1386 1384 1382 1380 1379 1377
1506 1506 1505 1504 1502 1501 1500 1498 1496 1493 1490 1487 1483 1479 1475 1471 1467 1462 1456 1450 1443 1438 1432 1426 1420 1415 1411 1408 1405 1403 1401 1399 1398 1397 1395 1393 1391 1389 1387 1386 1384 1382 1380
1508 1507 1506 1505 1504 1502 1500 1498 1496 1493 1490 1487 1483 1479 1475 1471 1466 1460 1455 1449 1443 1437 1431 1426 1422 1418 1415 1412 1409 1407 1405 1403 1402 1400 1398 1396 1395 1393 1391 1390 1388 1386 1384
1509 1508 1508 1507 1505 1503 1500 1498 1496 1493 1490 1487 1483 1479 1475 1471 1466 1461 1456 1450 1444 1439 1433 1429 1426 1422 1419 1417 1414 1412 1410 1408 1406 1404 1403 1401 1399 1398 1396 1395 1394 1392 1390
1511 1510 1509 1508 1506 1504 1502 1499 1496 1494 1491 1488 1484 1480 1476 1472 1467 1463 1457 1452 1447 1441 1437 1433 1429 1427 1424 1422 1419 1417 1415 1413 1411 1409 1408 1406 1405 1403 1402 1401 1400 1399 1397
1513 1512 1511 1509 1507 1505 1503 1500 1498 1496 1492 1489 1485 1481 1477 1473 1469 1464 1459 1454 1449 1445 1440 1437 1434 1431 1429 1426 1424 1422 1420 1418 1417 1415 1414 1412 1411 1410 1409 1408 1406 1405 1404
1515 1514 1513 1511 1509 1506 1504 1501 1499 1496 1493 1490 1486 1482 1478 1474 1470 1466 1461 1457 1452 1448 1444 1441 1438 1436 1433 1431 1429 1427 1426 1424 1423 1421 1420 1419 1418 1416 1415 1414 1413 1412 1411
1518 1516 1515 1513 1511 1508 1506 1503 1500 1497 1495 1491 1488 1484 1480 1476 1473 1468 1464 1459 1456 1452 1449 1445 1443 1440 1437 1435 1434 1432 1431 1430 1428 1427 1426 1425 1424 1423 1422 1422 1421 1420 1419
1520 1517 1516 1515 1513 1510 1507 1505 1502 1499 1496 1493 1490 1486 1482 1478 1475 1471 1467 1463 1459 1456 1453 1450 1447 1444 1442 1440 1438 1437 1436 1435 1434 1433 1432 1431 1431 1430 1429 1429 1429 1428 1428
1524 1522 1519 1518 1515 1512 1510 1507 1504 1501 1498 1496 1493 1489 1485 1481 1478 1474 1470 1466 1463 1459 1456 1453 1451 1448 1446 1444 1443 1442 1441 1441 1440 1440 1439 1438 1437 1437 1437 1436 1436 1436 1436
1526 1524 1522 1520 1517 1514 1512 1510 1507 1503 1501 1498 1495 1492 1488 1484 1481 1477 1473 1470 1466 1463 1460 1457 1455 1452 1450 1448 1447 1447 1446 1446 1446 1445 1445 1444 1444 1444 1443 1443 1443 1443 1444
1529 1527 1524 1522 1520 1517 1515 1512 1509 1506 1503 1500 1498 1495 1491 1488 1484 1480 1477 1473 1470 1467 1464 1462 1459 1457 1455 1453 1452 1451 1451 1451 1451 1451 1451 1450 1450 1450 1450 1450 1450 1450 1451
1531 1529 1527 1525 1522 1520 1517 1515 1512 1509 1506 1504 1501 1498 1495 1491 1488 1484 1481 1477 1474 1471 1468 1466 1464 1462 1460 1459 1458 1457 1456 1456 1456 1456 1456 1456 1456 1456 1456 1456 1457 1457 1458
1533 1531 1529 1526 1524 1522 1520 1517 1515 1512 1510 1507 1504 1502 1499 1496 1492 1489 1485 1482 1479 1476 1473 1471 1469 1467 1466 1464 1463 1463 1462 1462 1461 1461 1462 1462 1462 1462 1463 1463 1464 1464 1465
1535 1533 1531 1529 1526 1524 1522 1520 1518 1515 1513 1511 1508 1505 1502 1499 1496 1493 1490 1487 1484 1481 1478 1476 1474 1473 1471 1470 1469 1468 1468 1468 1467 1466 1467 1468 1468 1468 1469 1469 1470 1471 1471